sat.trackr.live / text

‹ back to catalog

STARLINK-36325

NORAD 67861 · 2026-034M

PAYLOAD ACTIVE UNKNOWN

§ Identity

Operator
Country
US
Launch date
2026-02-20
Launch site
AFETR
Launch vehicle
Mass (kg)
RCS (m²)

Purposes: comms

External: N2YO · Heavens-Above · Gunter

§ Orbital elements

Epoch: 2026-05-24T15:51:20.261088Z

Period
94.10 min
Inclination
53.1582°
Eccentricity
0.0000874
Mean motion
15.30244516 rev/d
Perigee alt
474.5 km
Apogee alt
475.7 km
Semi-major
6,853.2 km
B*
8.0952e-4
RAAN
211.6232°
Arg perigee
80.9127°
Mean anomaly
279.1973°
Rev number
1,566

§ Raw data

STARLINK-363251 67861U 26034M   26144.66065117  .00023726  00000+0  80952-3 0  99982 67861  53.1582 211.6232 0000874  80.9127 279.1973 15.30244516 15664

JSON: /api/v1/satellites/67861 · /tle

For live sub-satellite position, see the globe view (requires WebGL).

§ Visibility from observer

Set your observer location to see the next 7 days of passes ≥ 10°. The values pass through the URL so the page stays shareable.

No JS? Fill the form by hand. The geolocation button needs JavaScript.